FW1757 Weather Reports


time (UTC)temp
F
wind
direction
speed
knots
gust
knots
rain 1hr
in
rain 24hr
in
rain mn
in
humidity
%
barometer
mb
20260901005024 88 152 0.0 0.0 0.00 0.00 0.00 20 1005.7
20260901004525 88 159 0.0 0.0 0.00 0.00 0.00 20 1005.7
20260901004023 89 150 0.0 0.0 0.00 0.00 0.00 20 1005.7
20260901003524 89 147 0.0 0.0 0.00 0.00 0.00 20 1005.8
20260901003023 89 128 0.0 0.0 0.00 0.00 0.00 19 1005.8
20260901002523 89 167 0.0 0.0 0.00 0.00 0.00 20 1005.9
20260901002023 89 150 0.0 0.0 0.00 0.00 0.00 19 1005.8
20260901001527 89 147 0.0 0.0 0.00 0.00 0.00 20 1005.9
20260901001021 89 167 0.0 0.0 0.00 0.00 0.00 20 1006.0
20260901000520 89 155 0.0 0.0 0.00 0.00 0.00 19 1006.1
20260901000021 89 117 0.0 0.0 0.00 0.00 0.00 19 1006.2
20260831235521 89 79 0.0 0.0 0.00 0.00 0.00 20 1006.2
20260831235019 89 188 0.0 0.0 0.00 0.00 0.00 20 1006.2
20260831234521 89 141 0.0 0.0 0.00 0.00 0.00 20 1006.5
20260831234019 89 128 0.0 0.0 0.00 0.00 0.00 19 1006.4
20260831233518 89 159 0.0 0.0 0.00 0.00 0.00 19 1006.4
20260831233034 89 126 0.0 0.0 0.00 0.00 0.00 20 1006.4
20260831232517 89 134 0.0 0.0 0.00 0.00 0.00 20 1006.5
20260831232021 90 143 0.0 0.0 0.00 0.00 0.00 19 1006.5
20260831231520 89 156 0.0 0.0 0.00 0.00 0.00 20 1006.5
20260831231015 89 169 0.0 0.0 0.00 0.00 0.00 19 1006.7
20260831230515 89 68 0.0 0.0 0.00 0.00 0.00 19 1006.7
20260831230014 89 143 0.0 0.0 0.00 0.00 0.00 20 1006.8
20260831225514 89 138 0.0 0.0 0.00 0.00 0.00 20 1006.9
20260831225011 89 161 0.0 0.0 0.00 0.00 0.00 20 1007.0
20260831224510 89 155 0.0 0.0 0.00 0.00 0.00 20 1007.2
20260831224010 88 157 0.0 0.0 0.00 0.00 0.00 20 1007.2
20260831223508 88 150 0.0 0.0 0.00 0.00 0.00 21 1007.3
20260831223008 88 133 0.0 0.0 0.00 0.00 0.00 21 1007.5
20260831222506 88 155 0.0 0.0 0.00 0.00 0.00 21 1007.6
20260831222006 87 158 0.0 0.0 0.00 0.00 0.00 21 1007.7
20260831221504 87 162 0.0 0.0 0.00 0.00 0.00 22 1007.7
20260831221004 87 142 0.0 0.0 0.00 0.00 0.00 22 1007.8
20260831220503 87 119 0.0 0.0 0.00 0.00 0.00 22 1007.8
20260831220004 87 151 0.0 0.0 0.00 0.00 0.00 23 1007.9
20260831215501 86 137 0.0 0.0 0.00 0.00 0.00 23 1008.0
20260831215100 86 172 0.0 0.0 0.00 0.00 0.00 23 1008.1
20260831214609 86 155 0.0 0.0 0.00 0.00 0.00 23 1008.2
20260831214101 85 144 0.0 0.0 0.00 0.00 0.00 24 1008.2
20260831213556 85 165 0.0 0.0 0.00 0.00 0.00 24 1008.3
20260831213055 84 130 0.0 0.0 0.00 0.00 0.00 24 1008.3
20260831212554 84 69 0.0 0.0 0.00 0.00 0.00 24 1008.4
20260831212054 84 121 0.0 0.0 0.00 0.00 0.00 25 1008.5
20260831211552 83 123 0.0 0.0 0.00 0.00 0.00 25 1008.5
20260831211050 83 86 0.0 0.0 0.00 0.00 0.00 25 1008.6
20260831210553 83 127 0.0 0.0 0.00 0.00 0.00 25 1008.5
20260831210049 83 181 0.0 0.0 0.00 0.00 0.00 25 1008.6
20260831205552 83 116 0.0 0.0 0.00 0.00 0.00 26 1008.8
20260831205047 83 126 0.0 0.0 0.00 0.00 0.00 26 1008.8
20260831204546 82 149 0.0 0.0 0.00 0.00 0.00 28 1008.9
20260831204045 81 92 0.0 0.0 0.00 0.00 0.00 27 1008.9
20260831203545 81 107 0.0 0.0 0.00 0.00 0.00 27 1009.0
20260831203042 81 112 0.0 0.0 0.00 0.00 0.00 28 1009.1
20260831202542 81 77 0.0 0.0 0.00 0.00 0.00 29 1009.4
20260831202041 81 102 0.0 0.0 0.00 0.00 0.00 30 1009.6
20260831201539 81 127 0.0 0.0 0.00 0.00 0.00 30 1009.7
20260831201039 81 148 0.0 0.0 0.00 0.00 0.00 30 1009.9
20260831200538 80 148 0.0 0.0 0.00 0.00 0.00 31 1010.1
20260831200039 80 94 0.0 0.0 0.00 0.00 0.00 31 1010.0
20260831195534 79 137 0.0 0.0 0.00 0.00 0.00 32 1010.1
20260831195033 79 78 0.0 0.0 0.00 0.00 0.00 32 1010.2
20260831194533 79 100 0.0 0.0 0.00 0.00 0.00 32 1010.3
20260831194030 78 144 0.0 0.0 0.00 0.00 0.00 33 1010.3
20260831193531 78 176 0.0 0.0 0.00 0.00 0.00 34 1010.4
20260831193034 77 104 0.0 0.0 0.00 0.00 0.00 34 1010.5
20260831192527 77 156 0.0 0.0 0.00 0.00 0.00 34 1010.6
20260831192025 76 128 0.0 0.0 0.00 0.00 0.00 35 1010.7
20260831191524 76 132 0.0 0.0 0.00 0.00 0.00 35 1010.7
20260831191025 76 159 0.0 0.0 0.00 0.00 0.00 36 1010.8
20260831190522 75 89 0.0 0.0 0.00 0.00 0.00 35 1011.0
20260831190024 75 71 0.0 0.0 0.00 0.00 0.00 35 1011.0
20260831185519 75 163 0.0 0.0 0.00 0.00 0.00 37 1011.0
20260831185018 74 153 0.0 0.0 0.00 0.00 0.00 37 1011.2
20260831184517 74 57 0.0 0.0 0.00 0.00 0.00 37 1011.3
20260831184016 74 127 0.0 0.0 0.00 0.00 0.00 38 1011.3
20260831183514 73 146 0.0 0.0 0.00 0.00 0.00 38 1011.5
20260831183013 73 71 0.0 0.0 0.00 0.00 0.00 39 1011.5
20260831182514 73 200 0.0 0.0 0.00 0.00 0.00 39 1011.7
20260831182012 72 135 0.0 0.0 0.00 0.00 0.00 40 1011.8
20260831181511 72 136 0.0 0.0 0.00 0.00 0.00 40 1011.9
20260831181010 72 82 0.0 0.0 0.00 0.00 0.00 40 1012.0
20260831180508 72 126 0.0 0.0 0.00 0.00 0.00 42 1012.0
20260831180008 71 65 0.0 0.0 0.00 0.00 0.00 43 1012.1
20260831175506 70 57 0.0 0.0 0.00 0.00 0.00 44 1012.1
20260831175004 70 113 0.0 0.0 0.00 0.00 0.00 44 1012.2
20260831174506 69 104 0.0 0.0 0.00 0.00 0.00 47 1012.1
20260831174001 68 153 0.0 0.0 0.00 0.00 0.00 48 1012.2
20260831173559 67 95 0.0 0.0 0.00 0.00 0.00 50 1012.2
20260831173059 66 34 0.0 0.0 0.00 0.00 0.00 58 1012.3
20260831172557 66 38 0.0 0.0 0.00 0.00 0.00 61 1012.3
20260831172056 65 40 0.0 0.0 0.00 0.00 0.00 62 1012.3
20260831171555 64 40 0.0 0.0 0.00 0.00 0.00 63 1012.5
20260831171053 64 12 0.0 0.0 0.00 0.00 0.00 64 1012.5
20260831170552 63 55 0.0 0.0 0.00 0.00 0.00 65 1012.4
20260831170051 62 51 0.0 0.0 0.00 0.00 0.00 66 1012.5
20260831165549 62 49 0.0 0.0 0.00 0.00 0.00 67 1012.4
20260831165047 61 51 0.0 0.0 0.00 0.00 0.00 67 1012.6
20260831164549 60 51 0.0 0.0 0.00 0.00 0.00 68 1012.7
20260831164045 60 46 0.0 0.0 0.00 0.00 0.00 69 1012.7
20260831163544 59 28 0.0 0.0 0.00 0.00 0.00 69 1012.7
20260831163045 59 40 0.0 0.0 0.00 0.00 0.00 71 1012.8
20260831162544 58 39 0.0 0.0 0.00 0.00 0.00 71 1012.8
20260831162045 58 23 0.0 0.0 0.00 0.00 0.00 71 1012.8
20260831161550 57 38 0.0 0.0 0.00 0.00 0.00 71 1013.0
20260831161043 57 22 0.0 0.0 0.00 0.00 0.00 72 1013.0
20260831160542 56 26 0.0 0.0 0.00 0.00 0.00 72 1013.0
20260831160042 56 306 0.0 0.0 0.00 0.00 0.00 72 1013.0
20260831155542 56 306 0.0 0.0 0.00 0.00 0.00 72 1013.0
20260831155042 55 306 0.0 0.0 0.00 0.00 0.00 72 1013.1
20260831154542 55 306 0.0 0.0 0.00 0.00 0.00 68 1013.1
20260831154043 54 306 0.0 0.0 0.00 0.00 0.00 67 1013.1
20260831153544 54 248 0.0 0.0 0.00 0.00 0.00 61 1013.1
20260831153041 54 248 0.0 0.0 0.00 0.00 0.00 53 1013.1
20260831152541 53 248 0.0 0.0 0.00 0.00 0.00 43 1013.1
20260831152041 53 248 0.0 0.0 0.00 0.00 0.00 40 1013.2
20260831151540 53 248 0.0 0.0 0.00 0.00 0.00 39 1013.2
20260831151040 52 248 0.0 0.0 0.00 0.00 0.00 38 1013.0
20260831150542 52 248 0.0 0.0 0.00 0.00 0.00 39 1013.1
20260831150040 52 248 0.0 0.0 0.00 0.00 0.00 39 1013.0
20260831145539 51 248 0.0 0.0 0.00 0.00 0.00 36 1012.9
20260831145038 51 248 0.0 0.0 0.00 0.00 0.00 38 1013.0
20260831144537 51 248 0.0 0.0 0.00 0.00 0.00 42 1012.9
20260831144036 51 248 0.0 0.0 0.00 0.00 0.00 49 1012.8
20260831143536 51 248 0.0 0.0 0.00 0.00 0.00 53 1012.8
20260831143035 50 248 0.0 0.0 0.00 0.00 0.00 56 1012.8
20260831142535 50 248 0.0 0.0 0.00 0.00 0.00 56 1012.8
20260831142034 50 248 0.0 0.0 0.00 0.00 0.00 56 1012.8
20260831141536 50 248 0.0 0.0 0.00 0.00 0.00 57 1012.8
20260831141038 50 248 0.0 0.0 0.00 0.00 0.00 57 1012.7
20260831140535 50 248 0.0 0.0 0.00 0.00 0.00 58 1012.7
20260831140044 50 248 0.0 0.0 0.00 0.00 0.00 58 1012.8
20260831135534 50 248 0.0 0.0 0.00 0.00 0.00 58 1012.8
20260831135032 50 248 0.0 0.0 0.00 0.00 0.00 58 1012.8
20260831134538 51 248 0.0 0.0 0.00 0.00 0.00 58 1012.8
20260831134032 51 248 0.0 0.0 0.00 0.00 0.00 59 1012.8
20260831133531 51 248 0.0 0.0 0.00 0.00 0.00 60 1012.7
20260831133033 51 248 0.0 0.0 0.00 0.00 0.00 60 1012.8
20260831132531 51 248 0.0 0.0 0.00 0.00 0.00 60 1012.7
20260831132032 51 248 0.0 0.0 0.00 0.00 0.00 61 1012.7
20260831131530 51 248 0.0 0.0 0.00 0.00 0.00 63 1012.7
20260831131032 51 248 0.0 0.0 0.00 0.00 0.00 63 1012.6
20260831130529 51 248 0.0 0.0 0.00 0.00 0.00 62 1012.6
20260831130028 51 248 0.0 0.0 0.00 0.00 0.00 60 1012.7
20260831125533 51 248 0.0 0.0 0.00 0.00 0.00 63 1012.7
20260831125028 51 248 0.0 0.0 0.00 0.00 0.00 63 1012.6
20260831124527 51 248 0.0 0.0 0.00 0.00 0.00 63 1012.6
20260831124027 51 248 0.0 0.0 0.00 0.00 0.00 66 1012.7
20260831123529 51 248 0.0 0.0 0.00 0.00 0.00 66 1012.7
20260831123030 51 248 0.0 0.0 0.00 0.00 0.00 67 1012.6
20260831122525 51 248 0.0 0.0 0.00 0.00 0.00 68 1012.6
20260831122024 51 248 0.0 0.0 0.00 0.00 0.00 67 1012.7
20260831121532 51 248 0.0 0.0 0.00 0.00 0.00 68 1012.6
20260831121024 52 248 0.0 0.0 0.00 0.00 0.00 68 1012.5
20260831120524 52 248 0.0 0.0 0.00 0.00 0.00 68 1012.6
20260831120023 52 248 0.0 0.0 0.00 0.00 0.00 69 1012.6
20260831115522 52 248 0.0 0.0 0.00 0.00 0.00 69 1012.6
20260831115022 52 248 0.0 0.0 0.00 0.00 0.00 70 1012.7
20260831114521 52 248 0.0 0.0 0.00 0.00 0.00 70 1012.7
20260831114021 52 248 0.0 0.0 0.00 0.00 0.00 70 1012.6
20260831113525 52 248 0.0 0.0 0.00 0.00 0.00 70 1012.6
20260831113020 52 248 0.0 0.0 0.00 0.00 0.00 70 1012.7
20260831112523 52 248 0.0 0.0 0.00 0.00 0.00 70 1012.6
20260831112020 53 248 0.0 0.0 0.00 0.00 0.00 70 1012.6
20260831111518 53 248 0.0 0.0 0.00 0.00 0.00 70 1012.6
20260831111018 53 248 0.0 0.0 0.00 0.00 0.00 70 1012.6
20260831110517 53 248 0.0 0.0 0.00 0.00 0.00 70 1012.7
20260831110017 53 248 0.0 0.0 0.00 0.00 0.00 70 1012.6
20260831105518 53 248 0.0 0.0 0.00 0.00 0.00 70 1012.7
20260831105015 53 248 0.0 0.0 0.00 0.00 0.00 70 1012.7
20260831104522 53 248 0.0 0.0 0.00 0.00 0.00 70 1012.7
20260831104014 54 248 0.0 0.0 0.00 0.00 0.00 71 1012.7
20260831103513 54 248 0.0 0.0 0.00 0.00 0.00 71 1012.6
20260831103013 54 248 0.0 0.0 0.00 0.00 0.00 71 1012.6
20260831102516 54 248 0.0 0.0 0.00 0.00 0.00 71 1012.7
20260831102014 54 248 0.0 0.0 0.00 0.00 0.00 71 1012.7
20260831101512 54 248 0.0 0.0 0.00 0.00 0.00 71 1012.8
20260831101011 54 248 0.0 0.0 0.00 0.00 0.00 72 1012.8
20260831100510 54 248 0.0 0.0 0.00 0.00 0.00 72 1012.8
20260831100012 55 248 0.0 0.0 0.00 0.00 0.00 72 1012.7
20260831095509 55 248 0.0 0.0 0.00 0.00 0.00 72 1012.9
20260831095008 55 248 0.0 0.0 0.00 0.00 0.00 72 1013.0
20260831094511 55 248 0.0 0.0 0.00 0.00 0.00 72 1013.0
20260831094010 55 248 0.0 0.0 0.00 0.00 0.00 72 1013.1
20260831093506 55 248 0.0 0.0 0.00 0.00 0.00 72 1013.1
20260831093004 55 248 0.0 0.0 0.00 0.00 0.00 72 1013.1
20260831092506 56 248 0.0 0.0 0.00 0.00 0.00 72 1013.1
20260831092004 56 248 0.0 0.0 0.00 0.00 0.00 71 1013.1
20260831091505 56 248 0.0 0.0 0.00 0.00 0.00 71 1013.2
20260831091003 56 248 0.0 0.0 0.00 0.00 0.00 71 1013.2
20260831090502 56 248 0.0 0.0 0.00 0.00 0.00 71 1013.2
20260831090001 57 248 0.0 0.0 0.00 0.00 0.00 71 1013.3
20260831085601 57 248 0.0 0.0 0.00 0.00 0.00 71 1013.2
20260831085100 57 248 0.0 0.0 0.00 0.00 0.00 71 1013.1
20260831084609 57 248 0.0 0.0 0.00 0.00 0.00 71 1013.3
20260831084058 57 248 0.0 0.0 0.00 0.00 0.00 70 1013.3
20260831083557 57 248 0.0 0.0 0.00 0.00 0.00 70 1013.3
20260831083057 58 248 0.0 0.0 0.00 0.00 0.00 70 1013.2
20260831082556 58 248 0.0 0.0 0.00 0.00 0.00 70 1013.2
20260831082056 58 248 0.0 0.0 0.00 0.00 0.00 70 1013.3
20260831081555 58 248 0.0 0.0 0.00 0.00 0.00 70 1013.3
20260831081055 58 248 0.0 0.0 0.00 0.00 0.00 70 1013.3
20260831080555 59 248 0.0 0.0 0.00 0.00 0.00 70 1013.5
20260831080104 59 248 0.0 0.0 0.00 0.00 0.00 70 1013.3
20260831075553 59 248 0.0 0.0 0.00 0.00 0.00 69 1013.4
20260831075052 59 248 0.0 0.0 0.00 0.00 0.00 70 1013.4
20260831074551 59 248 0.0 0.0 0.00 0.00 0.00 69 1013.3
20260831074051 59 248 0.0 0.0 0.00 0.00 0.00 69 1013.3
20260831073551 59 254 0.0 0.0 0.00 0.00 0.00 69 1013.4
20260831073053 59 254 0.0 0.0 0.00 0.00 0.00 68 1013.4
20260831072549 59 254 0.0 0.0 0.00 0.00 0.00 69 1013.4
20260831072049 59 254 0.0 0.0 0.00 0.00 0.00 68 1013.4
20260831071549 59 254 0.0 0.0 0.00 0.00 0.00 68 1013.5
20260831071048 60 254 0.0 0.0 0.00 0.00 0.00 68 1013.4
20260831070547 60 254 0.0 0.0 0.00 0.00 0.00 68 1013.3
20260831070048 60 254 0.0 0.0 0.00 0.00 0.00 68 1013.4
20260831065548 60 254 0.0 0.0 0.00 0.00 0.00 68 1013.4
20260831065146 60 254 0.0 0.0 0.00 0.00 0.00 67 1013.4
20260831064544 60 254 0.0 0.0 0.00 0.00 0.00 67 1013.5
20260831064044 60 254 0.0 0.0 0.00 0.00 0.00 67 1013.6
20260831063544 61 254 0.0 0.0 0.00 0.00 0.00 67 1013.3
20260831063043 61 254 0.0 0.0 0.00 0.00 0.00 66 1013.4
20260831062543 61 254 0.0 0.0 0.00 0.00 0.00 66 1013.6
20260831062043 61 254 0.0 0.0 0.00 0.00 0.00 65 1013.5
20260831061543 61 255 0.0 0.0 0.00 0.00 0.00 66 1013.6
20260831061043 61 255 0.0 0.0 0.00 0.00 0.00 66 1013.6
20260831060542 62 255 0.0 0.0 0.00 0.00 0.00 65 1013.7
20260831060042 62 255 0.0 0.0 0.00 0.00 0.00 65 1013.6
20260831055544 62 252 0.0 0.0 0.00 0.00 0.00 64 1013.7
20260831055041 62 252 0.0 0.0 0.00 0.00 0.00 63 1013.7
20260831054541 63 252 0.0 0.0 0.00 0.00 0.00 63 1013.6
20260831054041 63 252 0.0 0.0 0.00 0.00 0.00 62 1013.6
20260831053541 63 252 0.0 0.0 0.00 0.00 0.00 62 1013.7
20260831053042 64 252 0.0 0.0 0.00 0.00 0.00 61 1013.7
20260831052543 64 252 0.0 0.0 0.00 0.00 0.00 61 1013.8
20260831052040 64 252 0.0 0.0 0.00 0.00 0.00 61 1013.9
20260831051544 65 252 0.0 0.0 0.00 0.00 0.00 60 1013.8
20260831051040 65 252 0.0 0.0 0.00 0.00 0.00 60 1013.8
20260831050541 65 252 0.0 0.0 0.00 0.00 0.00 59 1013.8
20260831050041 66 252 0.0 0.0 0.00 0.00 0.00 59 1013.8
20260831045541 66 252 0.0 0.0 0.00 0.00 0.00 59 1013.8
20260831045040 66 266 0.0 0.0 0.00 0.00 0.00 58 1013.9
20260831044550 66 266 0.0 0.0 0.00 0.00 0.00 58 1014.0
20260831044039 66 268 0.0 0.0 0.00 0.00 0.00 58 1013.9
20260831043541 67 281 0.0 0.0 0.00 0.00 0.00 58 1013.7
20260831043039 67 295 0.0 0.0 0.00 0.00 0.00 57 1013.8
20260831042542 67 269 0.0 0.0 0.00 0.00 0.00 56 1014.0
20260831042039 67 269 0.0 0.0 0.00 0.00 0.00 55 1013.9
20260831041548 67 268 0.0 0.0 0.00 0.00 0.00 54 1013.9
20260831041043 67 267 0.0 0.0 0.00 0.00 0.00 54 1013.9
20260831040539 67 266 0.0 0.0 0.00 0.00 0.00 53 1013.8
20260831040039 68 238 0.0 0.0 0.00 0.00 0.00 53 1013.9
20260831035541 68 220 0.0 0.0 0.00 0.00 0.00 52 1013.9
20260831035037 68 194 0.0 0.0 0.00 0.00 0.00 52 1013.9
20260831034537 68 248 0.0 0.0 0.00 0.00 0.00 51 1013.8
20260831034037 68 209 0.0 0.0 0.00 0.00 0.00 51 1013.8
20260831033537 69 243 0.0 0.0 0.00 0.00 0.00 51 1013.8
20260831033037 69 243 0.0 0.0 0.00 0.00 0.00 50 1013.6
20260831032537 69 243 0.0 0.0 0.00 0.00 0.00 50 1013.6
20260831032036 69 243 0.0 0.0 0.00 0.00 0.00 49 1013.5
20260831031538 70 242 0.0 0.0 0.00 0.00 0.00 49 1013.6
20260831031036 70 242 0.0 0.0 0.00 0.00 0.00 49 1013.5
20260831030539 70 239 0.0 0.0 0.00 0.00 0.00 48 1013.5
20260831030037 70 255 0.0 0.0 0.00 0.00 0.00 48 1013.6
20260831025536 70 243 0.0 0.0 0.00 0.00 0.00 47 1013.5
20260831025036 71 283 0.0 0.0 0.00 0.00 0.00 47 1013.4
20260831024539 71 284 0.0 0.0 0.00 0.00 0.00 46 1013.5
20260831024035 72 275 0.0 0.0 0.00 0.00 0.00 45 1013.5
20260831023535 72 267 0.0 0.0 0.00 0.00 0.00 45 1013.5
20260831023035 72 259 0.0 0.0 0.00 0.00 0.00 44 1013.5
20260831022534 73 234 0.0 0.0 0.00 0.00 0.00 43 1013.5
20260831022034 73 248 0.0 0.0 0.00 0.00 0.00 43 1013.4
20260831021538 73 244 0.0 0.0 0.00 0.00 0.00 42 1013.6
20260831021036 74 275 0.0 0.0 0.00 0.00 0.00 42 1013.5
20260831020534 74 274 0.0 0.0 0.00 0.00 0.00 41 1013.6
20260831020034 75 244 0.0 0.0 0.00 0.00 0.00 40 1013.6
20260831015533 75 225 0.0 0.0 0.00 0.00 0.00 40 1013.4
20260831015034 75 284 0.0 0.0 0.00 0.00 0.00 40 1013.6
20260831014542 76 259 0.0 0.0 0.00 0.00 0.00 39 1013.6
20260831014033 76 294 0.0 0.0 0.00 0.00 0.00 39 1013.5
20260831013532 76 209 0.0 0.0 0.00 0.00 0.00 39 1013.6
20260831013036 76 215 0.0 0.0 0.00 0.00 0.00 39 1013.6
20260831012532 76 259 0.0 0.0 0.00 0.00 0.00 39 1013.6
20260831012032 76 271 0.0 0.0 0.00 0.00 0.00 38 1013.6
20260831011535 76 284 0.0 0.0 0.00 0.00 0.00 38 1013.5
20260831011031 76 258 0.0 0.0 0.00 0.00 0.00 37 1013.6
20260831010531 77 241 0.0 0.0 0.00 0.00 0.00 38 1013.7
20260831010031 77 259 0.0 0.0 0.00 0.00 0.00 37 1013.7
20260831005530 77 253 0.0 0.0 0.00 0.00 0.00 37 1013.7